GFSMA_500_spd_132.txt.gz
Wind_Speed
10 13 18 19 18 15 10 9 12 11 15 12 11 12 12 10 9 11 10 9 10 9 9 9 9 10 10 9 8 8 7 7 7 8 8 9 10 9 10 14 16 14 14
11 8 11 18 19 20 17 13 12 11 16 15 14 14 14 12 13 13 11 12 12 10 10 10 11 11 11 12 11 10 10 10 9 9 9 9 8 9 11 13 12 12 12
10 8 4 4 14 19 21 20 18 18 16 19 18 16 16 14 15 14 12 14 14 12 13 11 12 12 11 12 12 11 10 10 10 10 10 10 11 11 11 12 13 13 12
6 7 8 7 14 14 17 22 24 21 20 20 24 20 17 16 16 16 14 13 13 13 13 13 12 15 14 13 12 11 10 11 11 11 11 12 12 12 12 10 11 12 12
7 6 8 10 12 14 14 17 27 27 24 25 22 22 25 19 18 16 15 16 15 14 15 15 16 15 14 15 14 13 12 12 13 14 15 16 16 16 15 14 12 12 13
6 5 6 9 8 13 12 17 24 26 26 27 26 25 27 18 19 19 19 18 17 15 15 14 15 15 15 15 15 16 16 16 17 18 18 16 16 16 16 15 14 13 14
9 9 8 7 8 8 14 15 16 22 29 34 32 30 28 30 22 21 20 19 20 19 17 18 18 18 17 17 18 18 19 19 17 17 17 18 18 17 17 17 17 17 16
14 11 11 11 9 11 12 14 15 22 23 26 31 30 30 34 29 24 22 20 21 18 18 21 21 20 19 19 19 20 20 19 18 17 18 21 23 22 21 20 20 21 21
19 20 19 17 16 16 15 18 19 20 21 22 25 29 25 24 29 29 29 26 24 21 23 23 22 22 22 21 21 20 20 21 20 18 22 24 28 27 25 24 24 28 25
20 20 23 24 24 21 21 21 22 21 24 24 25 26 26 28 31 29 28 31 33 29 28 27 26 24 24 24 21 20 19 21 20 20 23 26 24 22 26 26 29 26 24
26 29 29 28 27 28 27 26 27 26 25 28 28 30 30 30 31 30 30 30 35 36 35 33 29 28 26 26 25 23 22 23 22 23 24 23 21 19 18 19 22 25 25
31 32 32 35 37 35 33 33 31 31 30 29 29 31 30 31 31 32 31 33 32 35 34 35 33 31 30 29 28 28 26 24 26 26 23 22 21 19 19 20 22 25 26
35 36 38 38 38 39 40 40 38 37 35 33 34 32 34 30 31 33 35 35 36 34 31 34 35 35 33 33 33 31 28 28 28 27 22 22 20 19 18 17 18 20 21
40 40 41 42 43 42 43 44 44 43 43 42 38 37 37 35 33 33 34 35 34 36 31 31 36 34 36 35 33 32 30 31 30 27 22 21 19 19 17 15 16 17 18
46 46 46 47 46 48 48 49 48 46 48 46 46 43 42 39 38 36 36 36 35 36 31 29 30 36 37 36 32 32 33 33 31 25 21 21 19 17 18 18 18 18 18
51 51 51 51 51 50 52 53 52 50 52 50 50 49 48 44 45 40 39 39 39 36 33 32 30 32 34 34 31 32 31 29 26 21 22 21 20 17 20 20 20 21 20
55 55 55 55 55 55 53 54 53 54 56 56 53 58 50 51 46 48 44 42 40 38 34 34 35 33 32 32 30 30 27 24 24 23 23 22 20 17 19 22 21 24 24
53 53 52 53 54 56 56 57 55 55 57 56 57 59 63 57 59 51 51 45 43 39 37 33 40 36 33 32 30 30 28 26 27 26 23 21 18 18 21 22 23 25 24
54 56 57 55 54 56 56 56 57 57 56 57 59 59 60 57 61 54 55 60 45 41 38 38 39 38 35 31 31 32 30 27 27 25 22 22 21 20 22 22 24 24 24
58 57 55 55 55 54 56 57 56 56 57 56 57 59 60 59 64 54 52 40 46 45 39 40 41 42 37 34 33 32 31 28 26 24 23 24 23 24 22 26 26 26 24
53 50 52 52 52 51 53 54 56 54 54 56 54 53 55 54 52 51 55 44 57 51 44 42 43 46 39 35 33 37 35 32 29 27 25 27 26 23 27 29 29 26 25
38 44 46 46 48 45 47 48 52 53 50 48 51 51 50 49 45 52 59 56 50 51 47 45 44 44 41 39 39 39 37 34 30 30 29 31 30 31 32 31 30 32 27
46 49 35 34 35 35 37 40 44 47 42 43 46 47 50 46 43 49 53 47 49 52 54 48 46 43 41 41 41 41 39 37 35 33 32 33 34 35 37 35 35 30 31
45 32 24 22 24 28 29 28 31 38 40 38 39 43 45 42 38 38 45 39 38 39 57 50 48 45 42 47 43 41 39 36 37 36 37 38 39 38 39 38 37 36 35
42 23 17 19 18 22 25 28 29 29 29 31 34 35 35 36 34 37 35 35 32 35 58 53 49 48 47 50 47 45 42 41 40 39 38 39 41 43 44 40 39 37 35
24 18 14 16 17 19 24 22 23 22 25 28 30 32 34 35 35 32 32 35 30 44 54 54 51 51 52 53 53 49 47 43 44 42 41 41 42 41 44 47 47 41 38

GFSMA_500_spd_135.txt.gz
Wind_Speed
9 8 14 16 18 16 13 13 27 18 16 14 15 16 13 12 12 12 12 11 12 12 11 11 10 11 10 10 9 8 8 8 9 9 7 6 5 6 8 10 9 10 11
6 6 9 11 17 17 15 16 18 19 16 18 18 16 14 14 13 14 13 12 13 12 12 12 12 11 11 11 11 12 11 9 10 10 9 8 8 9 10 10 9 7 7
6 6 6 5 10 16 17 19 19 19 15 23 19 17 17 17 16 15 14 14 15 15 15 12 12 14 13 12 11 11 13 11 10 10 11 10 10 11 11 11 11 9 8
8 8 7 5 6 10 15 21 20 20 18 24 22 23 19 19 19 17 15 15 15 17 16 13 14 14 16 15 14 12 12 13 13 12 12 12 13 13 14 14 12 12 11
8 8 7 8 10 6 14 16 19 25 24 23 23 27 23 20 20 19 18 19 18 17 16 15 15 15 17 17 17 16 15 15 15 15 15 15 16 16 15 14 13 13 12
10 10 10 9 9 8 8 14 15 21 29 28 23 23 30 25 26 20 21 22 21 21 20 19 17 17 16 17 16 17 17 17 17 18 17 17 15 14 15 15 14 14 14
19 17 15 13 12 10 10 12 13 15 23 26 26 26 26 28 26 27 22 26 24 23 22 21 19 19 18 18 18 18 18 18 18 18 17 16 16 16 17 19 19 19 18
14 17 18 16 14 15 15 13 14 15 17 23 26 31 33 32 27 31 32 26 26 25 23 23 22 21 20 20 21 21 21 19 18 17 18 19 18 19 22 24 22 22 21
17 20 18 18 19 18 17 20 18 19 22 23 23 24 27 35 37 36 37 28 27 25 24 25 24 22 22 22 22 22 23 21 18 18 18 20 20 21 24 22 23 25 26
24 23 22 23 23 23 22 25 22 23 25 22 25 23 24 28 35 29 28 32 34 35 32 28 24 23 24 25 26 24 24 23 21 20 20 21 21 22 22 20 21 22 21
27 28 26 29 28 29 28 28 28 28 27 27 26 27 26 27 28 27 29 33 34 30 34 36 32 28 29 27 28 26 27 26 25 23 23 21 23 22 20 21 20 22 23
34 32 33 33 34 32 33 35 35 34 33 33 30 30 30 29 31 33 33 34 35 34 33 34 38 37 35 34 31 32 31 28 27 26 25 22 23 20 19 19 19 20 19
37 38 39 39 39 38 39 38 38 38 39 39 37 34 33 32 34 33 34 35 37 37 35 33 34 36 37 37 35 36 34 31 30 28 26 24 24 19 19 17 17 18 17
42 43 43 44 44 44 43 42 43 42 43 43 43 42 39 37 37 37 36 36 37 37 38 34 35 35 34 35 37 37 33 33 33 30 28 26 25 20 20 18 19 18 17
43 45 48 49 48 48 48 48 48 46 47 46 45 45 47 43 44 41 40 40 40 37 37 37 35 35 34 36 38 35 31 31 31 31 29 30 25 21 21 20 20 19 18
48 49 48 49 52 53 55 53 53 51 51 50 48 48 49 48 47 44 43 42 41 40 38 36 36 36 36 33 34 35 32 29 30 30 29 28 25 23 21 22 21 18 18
49 49 48 49 50 52 55 57 57 56 55 52 52 52 51 49 49 50 51 47 43 42 38 34 40 39 37 33 32 31 28 28 29 28 27 25 26 23 22 24 19 16 19
47 48 50 51 52 53 51 55 58 56 59 56 54 55 53 50 51 53 52 41 39 51 46 37 41 40 38 37 34 30 28 28 30 28 25 24 26 23 23 24 18 16 17
51 50 54 57 57 59 57 54 58 59 56 58 55 54 53 51 50 48 47 43 42 49 45 44 40 44 41 42 36 33 30 30 31 30 25 25 26 24 24 22 22 23 19
55 56 60 56 55 54 58 55 56 58 58 55 55 54 52 52 50 49 47 46 46 44 44 49 43 43 41 44 40 36 34 36 35 32 27 26 26 26 24 21 25 23 23
60 63 57 50 45 44 49 50 51 56 56 54 53 54 52 52 50 50 48 47 48 48 45 48 50 54 45 46 40 39 38 39 37 32 30 27 27 26 25 23 25 25 23
62 58 50 46 45 51 52 44 49 50 53 51 50 52 53 52 51 50 50 49 51 46 42 47 41 47 49 44 43 41 41 41 38 38 35 32 28 29 30 28 29 28 28
56 48 48 43 44 40 35 33 40 41 44 48 48 49 50 50 51 50 48 50 49 42 45 44 48 50 52 44 46 43 43 42 41 40 38 35 32 31 32 31 32 33 32
50 47 41 32 28 25 23 24 28 33 37 40 43 47 48 48 47 47 46 48 47 47 44 39 39 38 53 49 49 47 44 43 44 42 42 39 36 35 35 35 36 36 34
39 38 32 30 24 19 19 22 22 24 27 30 36 40 39 40 38 41 45 45 46 48 43 44 36 38 45 53 53 49 44 43 43 44 44 42 40 39 38 39 38 36 35
37 37 26 24 17 16 16 18 21 26 25 21 25 32 36 37 39 41 39 39 42 44 46 46 38 42 47 57 56 50 48 46 45 46 45 44 44 44 41 42 42 38 36

GFSMA_500_spd_138.txt.gz
Wind_Speed
9 7 8 14 17 17 18 15 23 25 27 22 20 18 17 16 15 15 15 15 15 14 14 14 13 13 12 11 10 10 8 8 8 8 8 8 8 8 10 11 10 9 10
9 7 8 10 7 11 15 16 19 29 29 24 21 20 20 19 17 17 16 16 16 14 15 16 15 14 13 13 13 14 13 11 11 10 10 10 10 11 10 10 11 10 9
10 10 8 7 5 9 13 17 17 18 31 25 23 22 21 19 18 18 17 17 17 17 17 17 16 16 14 13 13 14 14 13 12 12 12 11 10 11 12 12 12 12 10
10 12 12 9 7 7 12 16 21 21 20 24 30 23 22 21 20 20 20 19 19 19 20 20 20 17 16 15 15 15 15 15 14 14 13 12 13 14 14 14 13 12 12
11 12 13 13 13 10 11 15 19 21 22 22 26 26 26 23 22 21 21 22 21 21 21 20 21 19 18 16 16 17 17 17 16 15 14 14 15 15 14 13 12 12 12
12 13 15 14 14 14 12 11 15 18 23 26 23 29 30 29 23 21 22 23 23 23 23 23 23 22 20 20 18 18 18 18 19 17 16 16 15 13 13 14 14 15 15
13 12 13 15 15 14 15 13 13 16 20 23 26 28 26 25 32 27 28 27 25 25 24 25 24 23 21 19 17 17 18 19 19 18 18 17 15 14 15 16 17 21 18
17 19 20 18 20 17 16 17 15 16 19 19 20 27 24 25 26 35 33 31 30 25 26 27 25 24 24 22 20 20 20 21 20 20 18 17 17 16 18 20 24 24 22
19 18 20 22 26 24 19 19 21 19 19 23 22 22 25 29 33 36 36 34 32 33 29 29 29 29 28 26 22 22 22 23 22 21 20 20 19 18 19 21 22 22 21
24 24 24 24 24 25 23 25 29 27 26 24 25 25 26 26 26 32 39 38 38 38 35 29 31 30 30 26 24 23 24 25 24 22 21 22 20 21 21 22 21 21 21
30 31 31 31 31 29 28 27 30 31 33 32 30 28 27 28 29 28 29 36 38 36 38 38 35 36 32 30 28 26 28 27 26 25 24 23 23 23 24 24 21 22 20
37 38 39 38 37 37 36 33 33 34 34 37 38 36 32 29 28 30 30 32 32 31 34 36 35 33 39 39 36 32 33 32 30 27 27 25 24 25 23 24 23 23 20
41 43 44 44 44 43 43 42 40 38 38 39 39 39 41 36 34 31 32 33 36 37 36 37 37 37 34 38 40 39 38 36 34 31 30 29 26 27 25 23 24 23 20
38 41 43 44 47 48 48 48 49 48 46 43 42 42 40 43 41 37 35 35 35 36 37 35 36 36 35 35 37 37 37 38 37 34 31 30 30 29 27 25 25 24 21
41 42 43 43 43 45 46 48 50 50 53 51 49 46 45 43 45 43 42 39 38 34 36 35 36 36 36 37 37 38 37 37 36 34 32 30 28 28 27 27 26 25 21
45 45 46 46 46 44 45 46 46 47 52 53 54 53 50 47 46 44 45 43 41 37 33 33 34 36 36 35 36 34 35 33 36 34 31 30 28 24 25 27 26 24 22
48 48 48 48 50 50 47 47 48 49 52 52 55 56 55 52 50 48 44 46 41 40 37 32 37 41 40 36 39 35 33 30 28 33 33 32 26 24 24 25 26 22 20
50 48 48 51 51 50 52 54 55 59 59 58 55 55 55 56 54 50 48 45 42 42 49 38 36 38 44 40 40 38 32 31 28 29 33 31 27 24 24 25 26 22 20
52 50 52 52 53 57 60 61 64 63 63 60 62 61 55 55 56 52 48 46 43 41 43 38 37 39 45 49 46 41 37 32 28 29 33 32 28 27 27 25 24 21 23
54 54 57 59 59 63 62 62 60 59 57 59 57 59 59 56 55 53 49 46 46 45 43 40 38 40 44 40 43 42 42 37 33 33 35 32 31 30 28 26 23 23 24
56 58 60 61 59 58 56 53 53 52 49 49 47 53 57 57 54 52 52 48 47 43 45 41 40 41 41 42 41 43 47 43 38 35 34 33 33 32 30 28 26 26 26
59 62 62 57 55 48 52 50 50 52 57 57 55 49 52 54 52 51 52 49 47 45 45 43 42 42 41 45 43 41 47 42 39 35 36 36 35 32 31 30 31 29 28
60 57 56 54 45 49 45 39 38 33 32 39 47 50 48 50 48 49 48 48 47 46 45 45 43 42 43 42 45 50 53 50 43 40 38 39 36 34 35 34 33 33 30
58 55 57 51 43 49 40 34 27 23 22 24 28 36 40 44 45 45 46 47 47 47 45 47 46 46 45 46 42 41 43 47 47 41 38 39 39 39 39 37 35 36 32
51 50 53 44 45 38 33 31 25 22 20 19 23 30 32 38 42 42 42 44 45 43 48 47 47 48 46 44 46 49 47 47 48 44 39 41 43 42 41 40 38 38 36
50 50 42 45 37 31 26 23 23 25 24 21 20 26 29 32 37 41 41 43 44 44 45 45 46 47 45 44 50 43 37 51 48 48 42 42 43 44 43 42 42 40 41

GFSMA_500_spd_141.txt.gz
Wind_Speed
8 10 10 10 14 19 19 21 19 21 26 29 29 22 21 20 18 18 18 18 18 17 16 16 16 16 15 14 12 10 10 10 9 9 10 10 10 11 12 12 11 11 11
9 9 10 12 14 10 16 17 19 14 22 32 30 25 22 21 19 19 19 18 18 18 18 16 16 17 17 16 15 14 12 12 12 12 11 11 11 11 11 11 13 13 13
8 10 9 9 12 9 10 15 17 15 17 27 33 31 24 23 21 21 21 20 20 20 19 19 17 17 19 18 17 15 13 13 13 13 13 12 12 11 12 14 14 13 12
9 10 11 11 10 9 11 13 17 17 19 20 28 37 28 24 24 23 23 22 21 22 20 21 21 19 18 20 19 17 15 13 13 13 14 14 12 13 14 13 13 12 11
13 13 13 13 13 12 10 11 16 18 20 21 19 22 28 29 27 26 25 25 23 23 22 22 22 23 21 22 21 19 18 16 15 15 14 14 14 14 14 13 13 12 13
12 12 12 15 15 13 12 10 14 16 18 20 23 22 24 34 36 30 28 28 25 25 23 22 21 22 22 22 23 22 20 18 16 15 15 16 17 15 14 15 16 16 17
13 15 17 18 23 24 18 13 12 14 14 18 19 24 27 29 35 35 30 28 28 27 24 22 21 22 23 23 22 21 18 17 18 17 17 18 17 16 16 17 18 22 24
17 17 19 21 28 29 24 16 19 16 16 18 20 21 21 27 25 32 36 36 34 30 28 26 24 24 24 24 23 23 22 20 20 18 18 18 17 17 17 17 19 21 24
22 23 24 25 26 26 24 22 25 25 25 20 18 24 25 21 27 27 29 31 39 37 35 33 29 27 27 27 26 24 26 23 22 21 20 19 18 19 20 19 20 22 23
28 28 29 30 31 31 31 30 26 25 31 33 30 18 26 25 25 27 31 31 35 40 41 37 32 31 30 29 29 29 28 27 23 22 23 23 21 20 21 21 21 23 23
35 35 35 35 34 37 37 36 33 33 32 31 35 31 35 29 28 29 29 32 32 34 37 37 37 35 34 34 32 32 31 30 26 25 24 25 25 25 24 23 22 24 24
38 39 40 42 43 41 41 41 42 40 38 37 35 36 36 36 38 33 31 31 33 31 34 32 34 33 35 35 34 38 35 34 30 29 28 28 29 27 26 25 23 26 26
39 40 40 41 41 40 41 43 44 44 44 43 42 41 41 40 39 35 38 33 35 33 34 31 31 30 30 34 34 33 37 39 37 35 34 32 31 32 29 27 25 26 27
40 40 41 42 42 44 45 45 44 44 45 46 47 47 47 45 44 42 41 42 41 34 36 32 32 31 32 34 35 34 34 34 37 37 34 34 34 33 32 30 28 28 28
41 42 44 46 46 46 46 46 46 47 48 46 46 48 49 48 49 47 50 56 49 37 33 33 32 33 33 34 33 35 35 33 33 33 32 32 33 34 33 29 28 29 28
45 47 49 49 49 49 48 48 46 46 48 49 49 47 47 47 48 49 52 52 48 45 44 39 39 36 35 34 33 33 34 34 34 33 32 32 32 31 31 28 28 28 26
49 50 50 51 52 50 49 50 51 50 51 49 50 51 49 48 50 49 50 53 50 52 53 44 44 40 34 35 33 33 31 32 32 32 33 32 31 31 31 27 28 27 24
52 52 52 53 54 52 51 53 55 55 57 56 57 59 58 58 57 56 52 51 53 52 53 41 46 39 37 40 34 34 32 30 28 30 31 32 29 33 30 27 26 25 24
54 54 55 55 54 54 55 59 61 63 63 62 63 64 66 66 64 60 58 54 50 52 53 48 39 50 34 40 38 32 40 29 28 27 31 32 35 31 29 28 27 25 24
54 55 54 53 54 56 58 60 61 59 61 63 64 64 63 64 64 59 58 58 54 50 52 49 43 41 42 40 37 41 30 36 31 33 33 33 37 34 28 28 28 26 26
55 53 53 56 58 59 61 59 58 61 56 54 56 54 53 54 55 54 55 56 57 52 52 51 47 44 43 39 38 38 38 40 37 37 33 34 37 38 33 29 29 28 29
51 53 56 58 62 59 57 62 64 57 50 49 50 49 52 52 50 50 50 52 53 52 51 52 47 45 42 39 44 42 39 40 41 40 36 35 39 40 37 32 32 30 31
50 54 55 57 57 56 60 63 45 48 45 42 39 36 38 46 49 50 45 50 53 53 49 51 47 44 42 43 47 46 38 39 41 43 37 33 38 40 38 36 33 31 33
50 54 54 55 58 56 50 46 41 45 39 34 30 29 31 33 41 47 47 44 50 50 46 47 47 46 45 47 47 45 43 40 38 40 34 31 38 28 42 39 33 34 35
49 51 51 56 47 46 53 37 38 32 28 31 31 22 22 26 30 36 39 40 42 44 45 44 46 48 48 48 47 45 43 43 39 42 45 47 43 34 32 43 38 37 38
50 51 52 50 44 48 53 30 21 24 24 28 21 19 16 19 23 27 30 33 36 37 40 42 45 47 47 47 47 45 47 45 43 43 41 37 38 43 44 42 43 39 39